User: anonymous   Login
Location: Gniazdowice
(50.2124°N, 20.2673°E)
Time: 21:46:27
(UTC+00:00)
Language:

Cosmos 2181 Rocket - Orbit

View from above orbital plane
View from above orbital plane
View from above satellite
View from above satellite

Ground track
Ground track

The orbit data is extracted from the following two-line orbital elements,

1 21903U 92012B   24197.63756380  .00000066  00000-0  52826-4 0  9999
2 21903  82.9356  68.4309 0044097  86.2847 330.9224 13.74658992622488
Epoch (UTC): 15 July 2024 15:18:05
Eccentricity: 0.0044097
inclination: 82.9356°
perigee height: 950 km
apogee height: 1015 km
right ascension of ascending node: 68.4309°
argument of perigee: 86.2847°
revolutions per day: 13.74658992
mean anomaly at epoch: 330.9224°
orbit number at epoch: 62248

The dashed part of the orbit path shows where the satellite is in the earth's shadow,  

DLR